Home   Weather   Visalia   Past weeks
Flag for USA

Past Weather in Visalia, California, USA — Yesterday and Last 2 Weeks

Now
36 °F

Passing clouds.


Feels Like: 33 °F
Forecast: 49 / 34 °F
Wind: 3 mph from South

Location: Visalia Municipal

Current Time: Feb 18, 2019 at 8:36:49 am

Latest Report: Feb 18, 2019 at 7:56 am


Visibility: 10 mi

Pressure: 30.21 "Hg

Humidity: 97%

Dew Point: 35 °F

Location of VisaliaLocation

Past Weather in Visalia — Graph

°F

Visalia Temperature Yesterday

Maximum temperature yesterday: 48 °F (at 2:56 pm)
Minimum temperature yesterday: 35 °F (at 11:56 pm)
Average temperature yesterday: 41 °F

High & Low Weather Summary for the Past Weeks

 TemperatureHumidityPressure
High66 °F (Feb 14, 11:56 am)100% (Feb 16, 12:56 am)30.38 "Hg (Feb 16, 12:56 am)
Low30 °F (Feb 6, 4:56 am)41% (Feb 8, 3:56 pm)29.57 "Hg (Feb 14, 4:56 am)
Average47 °F81%30.03 "Hg
* Reported Feb 3 6:56 am — Feb 18 6:56 am, Visalia. Weather by CustomWeather, © 2019

Note: Actual official high and low records may vary slightly from our data, if they occured in-between our weather recording intervals... More about our weather records

Advertising

Visalia Weather History for the Previous 24 Hours

Scroll right to see more
 ConditionsComfort  
Time TempWeatherWind HumidityBarometerVisibility
6:56 am
Mon, Feb 18
33 °FScattered clouds.No wind96%30.18 "Hg10 mi
5:56 am35 °FOvercast.5 mph96%30.16 "Hg10 mi
4:56 am34 °FOvercast.5 mph100%30.15 "Hg10 mi
3:56 am32 °FPassing clouds.No wind100%30.15 "Hg10 mi
2:56 am32 °FIce fog.3 mph100%30.14 "Hg5 mi
1:56 am33 °FClear.5 mph100%30.14 "Hg10 mi
12:56 am35 °FClear.No wind96%30.13 "Hg10 mi
11:56 pm
Sun, Feb 17
35 °FClear.10 mph100%30.12 "Hg10 mi
10:56 pm36 °FClear.5 mph97%30.12 "Hg10 mi
9:56 pm38 °FClear.No wind97%30.10 "Hg10 mi
8:56 pm38 °FClear.5 mph97%30.09 "Hg10 mi
7:56 pm40 °FClear.3 mph93%30.06 "Hg10 mi
6:56 pm43 °FPassing clouds.No wind86%30.05 "Hg10 mi
5:56 pm44 °FPassing clouds.No wind79%30.03 "Hg10 mi
4:56 pm46 °FPassing clouds.3 mph71%30.02 "Hg10 mi
3:56 pm48 °FSunny.9 mph68%30.01 "Hg10 mi
2:56 pm48 °FPassing clouds.10 mph71%30.03 "Hg10 mi
2:21 pm46 °FPartly sunny.7 mph82%30.01 "Hg10 mi
1:56 pm45 °FPartly sunny.5 mph82%30.04 "Hg10 mi
1:26 pm45 °FPartly sunny.8 mph93%30.02 "Hg10 mi
12:56 pm44 °FMostly cloudy.9 mph93%30.05 "Hg10 mi
11:56 am44 °FLight rain. Mostly cloudy.13 mph85%30.06 "Hg10 mi
11:34 am45 °FCloudy.16 mph87%30.02 "Hg10 mi
10:56 am43 °FLight rain. Mostly cloudy.16 mph89%30.07 "Hg10 mi
9:56 am42 °FLight rain. Mostly cloudy.10 mph96%30.09 "Hg9 mi
9:24 am41 °FRain. Mostly cloudy.7 mph93%30.08 "Hg7 mi
8:56 am40 °FLight rain. Mostly cloudy.9 mph100%30.10 "Hg7 mi
8:25 am39 °FFog.10 mph100%30.07 "Hg2 mi
8:09 am39 °FFog.12 mph100%30.06 "Hg1 mi
Weather by CustomWeather, © 2019

See weather overview